Torna al catalogo

STARLINK-4727

AttivoComunicazioniVLEO
NORAD 53803·PAYLOAD·🇺🇸 United States

Lanciato Sep 11, 2022 da Cape Canaveral Space Force Station

Loading…

Prossimi Passaggi (prossime 24 ore)

TLE

AggiornatoSource: CelesTrak SupGP

Epoca: Sep 14, 2026, 22:21 UTC

1 53803C 22111AG  26257.93173611  .00006131  00000+0  18120-3 0  2571
2 53803  53.1596 111.4120 0001270  78.3580 278.3111 15.34379990    15

Traccia STARLINK-4727 in tempo reale con AllMySat

Download on the App Store